Regional Weather Roundup
Issued by NWS Spokane, WA

Home | Current Version | Previous Version | Text Only | Print | Product List | Glossary On
Versions: 1 2 3 4 5 6 7 8 9 10 11 12 13 14 15 16 17 18 19 20 21 22 23 24 25 26 27 28 29 30 31 32 33 34 35 36 37 38 39 40 41 42 43 44 45 46 47 48 49 50
764
NZUS01 KOTX 250125
RWROTX

Eastern Washington/Northern Idaho Roundup
National Weather Service, Spokane WA
600 PM PDT MON APR 24 2017

Note: "fair" indicated few or no clouds below 12,000 feet with no
significant weather and/or obstructions to visibility.

...Northeast Washington and Northern Idaho Panhandle...

CITY           SKY/WX    TMP DP  RH WIND       PRES   REMARKS
Spokane Intl   PTSUNNY   50  35  56 CALM      29.67S
Spokane Downto PTSUNNY   51  42  71 CALM      29.69R
Coeur d Alene  CLOUDY    47  40  76 SW3       29.69S
Deer Park      LGT RAIN  47  40  76 W8        29.68R
Sandpoint      CLOUDY    46  41  81 SW5       29.67R
Bonners Ferry  CLOUDY    52  36  54 SW5       29.65S

...Southeast Washington and southern Idaho Panhandle...

CITY           SKY/WX    TMP DP  RH WIND       PRES   REMARKS
Walla Walla    RAIN      49  47  93 S13       29.72R FOG
Pullman/Moscow PTSUNNY   52  37  56 NW7       29.68S
Lewiston       CLOUDY    54  42  64 SW3       29.67S
Lowell           N/A     54  46  74 N3        29.66S
Grangeville    FAIR      45  39  81 N9        29.66S

...Columbia Basin...

CITY           SKY/WX    TMP DP  RH WIND       PRES   REMARKS
Ephrata        PTSUNNY   58  33  39 CALM      29.66R
Moses Lake     CLOUDY    57  34  41 SW5       29.67S
Pasco          CLOUDY    55  45  68 SW10      29.69R
Richland       CLOUDY    56  47  70 SW8       29.69S
Hermiston      LGT RAIN  55  49  80 W12       29.70R
Pendleton      LGT RAIN  49  46  90 W9        29.71R

...East Slopes Cascades...

CITY           SKY/WX    TMP DP  RH WIND       PRES   REMARKS
The Dalles     CLOUDY    51  47  86 NW9       29.75R
Yakima         CLOUDY    56  41  57 S7        29.68R
Ellensburg     CLOUDY    55  37  50 E6        29.67R
Stampede Pass  FOG       36  36 100 VRB5      29.71R VSB 1/4
Wenatchee      PTSUNNY   56  35  45 SE7       29.65S
Omak           MOSUNNY   60  34  37 VRB3      29.66R
Chelan           N/A     57  30  36 MISG        N/A
Sunnyside      CLOUDY    54  43  65 S5        29.68R

...Southern British Columbia...

CITY           SKY/WX    TMP DP  RH WIND       PRES   REMARKS
Penticton      PTSUNNY   57  39  51 N9        29.66R
Castlegar      LGT RAIN  54  41  62 S6        29.65R
Cranbrook      MOSUNNY   50  37  62 S6        29.62S
Osoyoos          N/A     59  37  44 SW3         N/A
Creston          N/A     50  41  71 N5          N/A

...Western Montana...

CITY           SKY/WX    TMP DP  RH WIND       PRES   REMARKS
Kalispell      CLOUDY    48  41  76 N7        29.62S
Libby            N/A     52  36  54 NW5       29.61R
Missoula       LGT RAIN  46  40  79 W8        29.65R

...Neighboring Cities...

CITY           SKY/WX    TMP DP  RH WIND       PRES   REMARKS
Seattle        MOSUNNY   57  40  52 N9        29.79R
Portland       CLOUDY    53  44  71 NW8       29.84R
Boise          CLOUDY    50  39  66 W15       29.72R
Great Falls    CLOUDY    49  36  61 NE16      29.59R
Calgary        CLOUDY    39  34  81 NE14      29.70R



USA.gov is the U.S. government's official web portal to all federal, state and local government web resources and services.